SCP
0 0 0 0 0 0 0 0 1 1 1 1 1 2 2 3 5 5 4 2 2 2 2 2 2 2 2 3 3 3 2 2 1 1 1 1 1 1 1 1 1 1 2 2
0 0 0 0 0 0 0 1 1 1 1 1 1 2 2 2 4 4 4 3 2 2 2 3 3 2 3 3 3 2 2 2 1 1 1 1 1 1 1 1 1 1 1 1
1 0 0 0 0 0 0 1 2 2 1 1 1 1 1 2 3 4 4 3 2 2 2 3 3 3 3 3 3 2 2 2 2 1 1 1 1 1 1 1 1 1 1 1
0 0 0 0 0 0 0 1 2 1 1 0 1 1 1 2 3 4 3 2 2 2 3 4 3 3 3 4 3 3 3 2 2 2 2 2 1 1 1 1 1 1 1 1
0 0 0 0 0 0 0 0 1 1 0 0 0 1 1 1 2 3 2 2 2 2 3 5 5 4 3 4 4 4 3 3 3 3 3 2 2 2 2 2 2 1 1 1
0 0 0 0 0 0 0 0 0 0 0 0 0 1 1 1 2 2 2 2 3 3 5 7 8 6 5 4 4 4 4 4 3 3 3 3 2 2 2 2 2 2 1 1
0 0 0 0 0 0 0 0 0 0 0 0 0 1 1 1 2 2 2 2 3 5 7 11 13 11 8 6 5 5 5 5 4 4 4 4 3 3 3 4 3 3 2 2
0 0 0 0 0 0 0 0 0 0 0 0 1 1 2 3 3 3 3 3 4 7 11 17 20 17 12 8 7 7 7 6 5 5 4 4 4 4 4 5 5 4 3 3
0 0 0 0 0 0 0 0 0 0 0 0 1 2 3 4 4 4 3 3 5 10 18 25 25 19 13 9 8 8 7 5 4 4 4 4 4 5 5 6 6 5 4 4
0 0 0 0 0 0 0 0 0 0 0 0 1 3 3 3 3 3 3 3 6 11 19 25 23 16 11 9 8 8 6 4 3 3 3 4 5 5 5 5 6 5 5 4
0 0 0 0 0 0 0 0 0 0 0 0 1 2 2 2 3 4 3 3 4 7 12 15 14 10 8 7 7 7 5 4 3 2 3 4 5 5 6 6 5 4 4 5
0 0 0 0 0 0 0 0 0 0 0 0 1 2 2 2 4 4 3 2 3 4 5 6 6 5 4 5 6 6 5 4 3 3 3 4 5 6 7 7 5 4 4 5
0 0 0 0 0 0 0 0 0 0 0 0 1 1 3 4 4 3 2 2 3 3 4 4 5 4 4 5 6 5 5 4 4 4 4 5 6 7 8 8 7 5 5 5
0 0 0 0 0 0 0 0 0 0 1 1 1 2 3 4 3 2 2 2 3 4 4 5 6 6 5 5 5 5 4 4 5 5 5 5 7 7 8 9 9 7 6 6
0 0 0 0 0 0 0 0 0 1 1 1 2 3 3 3 2 2 2 3 4 5 5 5 6 6 6 5 4 4 5 5 6 7 6 6 7 8 8 10 11 10 8 7
0 0 0 0 0 0 0 0 0 1 1 1 2 2 2 2 2 2 2 3 4 5 5 5 5 5 4 4 4 4 6 7 7 7 6 5 7 7 7 10 12 10 8 7
0 0 0 0 0 0 0 0 0 1 1 1 2 2 2 2 2 2 2 3 5 6 6 5 4 4 4 4 4 5 5 7 7 5 4 4 6 6 6 8 10 9 7 5
0 0 0 0 0 0 0 0 1 1 2 1 2 2 2 2 2 2 2 3 4 6 6 5 5 4 4 4 5 5 5 5 5 4 3 3 4 4 5 6 7 7 5 4
0 0 0 0 0 0 0 0 0 1 1 2 2 2 2 3 2 2 2 2 3 5 7 6 6 5 5 5 5 5 4 4 4 3 3 3 3 3 4 4 4 5 4 3
0 0 0 0 0 0 0 0 0 1 1 1 1 2 2 2 2 2 3 3 3 5 7 7 7 6 5 5 4 4 3 3 3 3 2 2 3 3 3 3 3 4 3 3
0 0 0 0 0 0 0 0 0 0 1 1 1 1 1 1 1 2 4 5 6 6 7 9 9 8 6 5 4 3 3 3 3 3 3 3 3 3 3 3 3 3 3 3
0 0 0 0 0 0 0 0 0 0 0 0 0 1 1 1 1 2 5 7 8 8 9 11 12 11 9 6 4 3 3 4 5 5 5 5 4 4 4 4 4 4 3 3
0 0 0 0 0 0 0 0 0 1 1 1 1 1 1 1 1 2 5 7 8 8 10 13 15 13 10 7 4 3 4 6 8 9 8 7 6 5 5 5 5 4 4 3
0 0 0 1 0 0 1 1 1 1 1 1 1 1 1 1 2 3 4 6 7 8 10 13 15 14 10 7 5 4 4 7 10 11 11 9 8 6 6 6 6 5 4 4
0 0 1 1 1 1 1 1 1 1 1 1 1 1 1 2 4 4 5 5 5 6 9 12 13 12 10 7 5 5 6 8 10 12 13 12 9 7 7 6 6 5 4 4
0 0 1 1 1 1 1 1 1 1 1 1 1 1 1 2 5 5 4 4 4 6 8 11 12 12 10 8 6 5 7 9 11 12 14 13 10 8 7 6 6 5 4 3
Wind_Speed
1 2 3 7 7 7 4 3 3 4 3 3 3 4 6 8 9 9 8 7 6 6 6 6 8 8 7 5 5 4 4 4 3 2 2 1 1 1 1 1 3 3 2 2
3 5 11 8 6 4 2 1 2 2 2 3 4 3 4 5 8 10 10 9 8 7 6 6 7 7 7 6 5 5 3 3 3 2 2 2 2 1 2 1 1 2 2 2
6 10 6 4 4 4 3 4 4 3 1 2 4 1 1 2 3 6 7 8 9 11 10 9 8 7 7 7 6 5 4 3 3 3 1 1 1 1 0 1 1 2 2 2
6 8 5 4 4 4 4 7 5 3 2 2 2 1 4 2 2 4 5 6 8 8 8 8 8 8 8 7 6 5 5 3 3 3 2 3 2 2 3 2 2 2 1 1
6 5 4 5 5 4 5 5 5 3 2 1 2 3 4 1 3 4 5 7 9 9 9 9 9 9 8 7 7 6 5 4 3 3 3 3 2 2 1 1 1 1 2 2
7 5 4 4 2 3 2 2 4 4 5 2 3 3 4 3 7 6 5 6 9 10 10 9 8 7 6 5 6 5 5 4 3 3 3 3 3 2 2 2 2 1 1 1
6 6 4 1 3 4 5 6 5 5 4 3 2 2 5 5 6 8 9 8 8 10 9 9 9 8 7 7 6 5 5 4 4 3 3 3 3 3 3 3 3 2 1 1
1 6 5 1 3 3 1 8 7 4 3 3 3 1 5 3 3 5 6 5 6 7 8 10 10 9 8 8 7 6 6 5 4 4 4 3 3 2 2 3 3 3 2 3
2 5 6 3 1 4 1 1 7 8 2 1 2 2 4 2 4 4 4 4 4 6 7 8 8 8 8 8 8 8 7 6 5 5 4 3 3 3 2 2 2 2 2 2
5 2 6 5 5 4 4 4 6 5 4 1 2 2 3 3 3 3 4 3 3 3 5 5 5 6 6 6 6 6 7 6 5 4 4 3 3 3 3 2 2 2 2 2
5 3 5 5 2 1 3 4 5 4 5 6 2 5 5 8 7 7 5 5 4 4 5 5 5 4 4 4 5 5 5 4 4 4 4 3 3 2 2 2 2 2 1 1
2 6 1 5 5 2 2 3 5 4 1 4 4 6 3 6 7 7 6 5 5 5 4 4 4 4 4 3 3 4 4 4 4 4 3 2 1 1 1 1 1 1 1 1
4 7 3 7 8 7 3 2 3 6 5 3 3 5 3 3 4 5 6 5 5 5 4 3 3 3 3 3 3 3 3 3 3 3 3 2 1 1 1 2 1 1 1 1
6 5 6 6 6 2 3 4 2 5 4 3 5 4 1 2 3 4 5 5 4 5 5 4 3 3 2 2 2 2 2 2 3 3 2 2 2 2 2 2 1 1 1 1
6 3 1 2 2 1 2 3 2 1 5 6 5 4 4 5 6 6 5 5 4 5 5 5 4 3 3 3 2 2 2 1 2 2 2 3 2 2 1 1 1 1 1 1
5 3 3 4 3 4 5 5 3 2 2 4 4 2 4 3 4 4 5 6 6 6 5 5 4 4 3 3 3 2 2 1 2 2 1 1 1 1 1 2 1 1 1 1
2 4 3 2 4 5 4 4 2 3 1 4 4 5 3 4 4 5 5 6 6 6 5 5 5 4 3 3 3 3 2 2 2 2 1 1 1 1 2 2 1 1 2 1
5 4 3 1 4 1 6 3 4 6 4 2 3 3 4 5 5 4 5 7 6 5 5 4 4 3 2 2 2 2 3 3 3 2 1 0 1 1 1 1 1 2 2 2
6 7 4 3 2 3 4 4 1 3 2 2 3 3 3 4 5 3 1 4 6 5 5 5 4 4 3 3 3 3 2 2 2 1 0 0 1 0 1 1 3 2 2 2
5 6 6 4 3 3 4 5 1 6 2 4 1 3 3 4 3 2 2 3 4 4 3 3 3 3 3 3 3 4 2 1 1 1 1 0 0 1 1 2 2 2 2 2
3 4 4 3 2 4 5 4 3 3 5 3 0 2 2 3 5 4 3 3 3 4 4 4 4 3 3 2 4 3 2 2 2 1 0 0 1 1 2 1 2 1 1 0
4 3 2 3 2 5 5 2 2 6 4 2 1 1 2 2 2 3 4 4 4 3 3 4 4 2 1 3 4 2 1 1 1 1 0 1 1 2 1 1 1 1 1 1
2 5 5 6 6 6 2 3 3 3 3 2 2 2 4 3 2 2 3 3 3 2 2 3 4 3 1 2 4 3 2 1 1 1 0 1 2 2 1 0 1 0 1 1
3 2 3 1 1 1 1 2 2 2 3 3 3 4 4 4 3 2 2 2 2 2 2 2 3 3 1 1 1 2 2 1 2 1 1 1 1 2 2 1 1 1 1 1
2 2 2 1 1 2 3 2 1 2 2 3 3 2 3 5 4 3 2 2 2 2 1 2 3 3 2 1 1 1 1 1 1 1 1 1 1 1 1 1 1 1 2 3
2 3 4 4 5 3 3 2 1 2 1 2 3 3 3 3 4 4 3 2 2 2 2 2 2 2 2 1 1 1 1 1 1 1 1 1 1 1 1 0 2 4 2 1
Wind_Direction
291 83 237 235 217 210 207 208 233 241 213 138 158 167 174 171 160 162 162 162 158 161 158 143 141 138 133 128 130 138 143 151 143 145 154 158 180 190 181 197 201 203 206 190
1 263 242 238 233 225 214 175 255 282 202 146 155 164 171 160 170 173 168 168 168 158 152 148 143 143 143 142 139 137 150 161 163 171 173 175 170 192 198 218 212 210 205 205
224 249 256 241 231 220 229 204 213 212 332 54 101 22 197 202 144 150 166 168 166 168 166 164 157 154 151 153 156 159 168 172 178 170 130 95 64 41 12 266 256 243 215 213
257 261 273 263 244 184 229 219 197 189 125 267 119 184 268 191 148 160 177 173 170 169 164 164 161 162 165 168 163 165 172 174 184 166 149 155 167 197 223 223 227 252 244 232
266 280 290 267 243 190 215 207 200 202 148 35 13 117 273 143 170 208 203 191 179 171 166 167 167 168 171 167 164 170 165 173 179 168 164 164 186 213 221 216 216 246 264 252
263 271 246 244 262 169 149 54 10 43 69 11 270 131 261 224 197 192 197 194 183 171 166 164 162 157 162 168 166 163 165 185 191 185 181 180 194 201 188 205 214 244 265 269
315 315 306 326 26 357 67 79 33 7 18 260 274 111 243 234 188 171 179 188 181 170 164 159 160 165 172 174 175 174 176 196 202 194 198 200 203 198 200 206 200 209 243 254
326 304 292 280 169 193 187 132 150 186 210 271 352 223 266 254 176 160 159 159 155 166 167 168 170 174 179 181 181 180 185 200 204 202 211 213 209 205 209 204 195 206 222 230
177 269 294 302 234 137 94 151 163 132 114 67 317 304 323 41 86 101 106 108 153 166 167 173 173 173 177 182 184 185 188 198 205 209 210 212 209 202 207 212 201 215 233 230
159 248 298 315 29 24 139 141 78 90 121 107 313 277 225 200 153 126 113 128 141 134 148 164 169 170 175 182 182 183 189 197 204 206 208 202 211 213 213 204 209 220 236 249
135 142 311 358 32 293 31 53 93 108 137 140 196 271 226 190 175 162 158 151 135 136 160 163 173 174 169 166 168 182 189 192 199 205 207 210 208 208 203 194 216 222 229 211
140 123 252 275 276 198 133 138 130 131 194 147 158 264 266 173 167 154 154 154 151 153 152 150 154 148 148 157 169 179 183 190 204 202 195 203 198 177 183 200 215 196 213 219
108 102 62 346 347 358 22 25 113 126 115 131 148 259 320 123 136 148 150 152 145 142 134 128 121 125 140 148 153 160 177 193 195 171 160 164 166 164 187 197 199 191 187 228
103 100 145 183 223 259 321 341 39 107 127 165 190 212 309 113 143 163 164 158 140 140 145 142 136 139 149 155 156 162 184 181 167 157 158 168 192 196 202 204 199 194 184 188
86 96 142 210 217 65 2 347 353 108 175 169 193 184 211 189 179 185 173 156 146 135 136 142 152 160 157 146 142 152 168 164 156 163 181 201 207 199 199 213 214 203 195 184
70 96 46 353 6 32 16 355 13 40 88 134 126 208 224 180 136 140 151 152 157 145 145 150 159 162 160 155 151 142 150 161 145 146 190 200 181 195 217 221 201 173 209 234
69 99 84 303 329 33 349 321 39 51 68 147 167 211 171 114 137 161 159 146 148 153 158 160 165 171 178 177 160 152 158 117 98 98 104 161 189 214 235 221 183 199 211 204
124 99 114 89 46 203 248 292 82 79 36 67 137 162 155 161 166 160 153 146 148 158 169 170 166 155 163 155 138 131 110 91 84 75 65 72 192 212 236 227 231 235 227 225
129 125 106 105 135 269 302 332 30 110 4 354 106 121 127 126 83 37 96 149 160 171 181 177 167 159 151 146 139 111 98 97 98 98 70 201 171 190 245 251 245 235 235 259
65 100 111 115 138 223 263 294 315 98 6 316 86 125 136 110 94 246 205 134 128 141 150 153 144 132 138 150 132 123 127 128 148 195 218 272 224 201 222 236 239 239 226 236
36 50 109 145 186 249 270 291 44 106 232 272 217 176 153 165 185 198 163 128 123 130 138 134 129 135 153 149 131 136 152 194 214 203 163 335 299 256 235 241 249 225 202 157
161 144 166 140 164 246 284 34 129 206 214 171 160 149 122 132 132 139 140 137 129 121 128 128 121 120 134 134 127 130 190 228 191 158 152 307 302 294 293 274 286 267 165 158
159 178 176 175 203 228 229 163 195 161 136 143 146 123 116 116 141 144 134 134 126 134 137 126 125 124 129 138 137 148 214 190 142 117 282 296 312 325 324 221 212 221 165 166
325 64 93 75 254 243 113 83 74 114 134 135 130 131 123 129 137 127 126 125 128 140 138 126 122 135 162 152 139 167 196 177 143 182 278 300 324 329 338 347 198 186 193 193
266 48 79 52 293 10 2 22 66 66 74 88 97 121 141 128 126 132 138 151 169 159 149 130 139 154 182 176 182 212 198 148 141 220 263 287 301 290 310 323 313 241 229 214
234 168 159 214 227 184 243 265 77 83 65 110 102 79 71 113 135 137 145 167 169 159 142 134 140 152 176 168 196 273 250 156 154 224 272 264 271 272 261 288 350 4 349 307